GW1135 Weather Reports


Display with metric or nautical units.
time (UTC)temp
F
wind
direction
speed
MPH
gust
MPH
rain 1hr
in
rain 24hr
in
rain mn
in
humidity
%
barometer
mb
20260504045153 46 195 1.0 1.0 0.00 0.00 0.00 65 1012.6
20260504044007 47 225 1.0 2.0 0.00 0.00 0.00 61 1012.5
20260504042720 48 222 2.0 3.0 0.00 0.00 0.00 60 1012.4
20260504041536 47 214 2.0 2.0 0.00 0.00 0.00 60 1012.3
20260504040413 48 217 1.0 2.0 0.00 0.00 0.00 60 1012.4
20260504035209 48 217 1.0 1.0 0.00 0.00 0.00 60 1012.3
20260504033920 48 222 1.0 2.0 0.00 0.00 0.00 60 1012.2
20260504032757 48 226 2.0 2.0 0.00 0.00 0.00 59 1012.2
20260504031552 49 221 2.0 2.0 0.00 0.00 0.00 59 1012.1
20260504030411 50 246 2.0 2.0 0.00 0.00 0.00 56 1012.2
20260504025119 50 215 1.0 1.0 0.00 0.00 0.00 55 1012.2
20260504024033 51 226 1.0 1.0 0.00 0.00 0.00 54 1012.1
20260504022828 51 226 2.0 3.0 0.00 0.00 0.00 53 1012.2
20260504021552 51 237 2.0 2.0 0.00 0.00 0.00 52 1012.1
20260504020353 52 208 1.0 2.0 0.00 0.00 0.00 52 1012.1
20260504015217 52 217 3.0 5.0 0.00 0.00 0.00 52 1011.9
20260504013952 52 229 2.0 3.0 0.00 0.00 0.00 52 1012.0
20260504012809 52 218 2.0 5.0 0.00 0.00 0.00 51 1011.8
20260504011521 53 232 2.0 3.0 0.00 0.00 0.00 50 1011.8
20260504010320 54 234 2.0 5.0 0.00 0.00 0.00 48 1011.7
20260504005133 54 238 3.0 5.0 0.00 0.00 0.00 47 1011.6
20260504003953 54 217 2.0 3.0 0.00 0.00 0.00 47 1011.6
20260504002812 55 220 2.0 3.0 0.00 0.00 0.00 45 1011.4
20260504001609 56 217 1.0 2.0 0.00 0.00 0.00 43 1011.4
20260504000320 57 229 1.0 2.0 0.00 0.00 0.00 42 1011.3
20260503235120 58 271 4.0 6.0 0.00 0.00 0.00 40 1011.0
20260503234015 58 293 3.0 7.0 0.00 0.00 0.00 39 1011.0
20260503232753 58 276 4.0 6.0 0.00 0.00 0.00 39 1011.0
20260503231608 58 270 5.0 7.0 0.00 0.00 0.00 38 1011.0
20260503230321 58 238 4.0 5.0 0.00 0.00 0.00 38 1011.0
20260503225136 59 253 5.0 8.0 0.00 0.00 0.00 37 1010.9
20260503223952 60 262 5.0 10.0 0.00 0.00 0.00 36 1010.9
20260503222809 59 255 6.0 8.0 0.00 0.00 0.00 37 1010.9
20260503221522 60 307 4.0 8.0 0.00 0.00 0.00 37 1010.8
20260503220357 60 235 5.0 8.0 0.00 0.00 0.00 36 1011.0
20260503215154 59 279 4.0 8.0 0.00 0.00 0.00 37 1010.9
20260503214009 59 229 5.0 7.0 0.00 0.00 0.00 36 1010.8
20260503212742 61 243 5.0 7.0 0.00 0.00 0.00 35 1010.8
20260503211536 61 273 4.0 6.0 0.00 0.00 0.00 34 1010.6
20260503210354 61 285 5.0 7.0 0.00 0.00 0.00 34 1010.7
20260503205209 59 309 4.0 7.0 0.00 0.00 0.00 35 1010.9
20260503203921 60 252 4.0 7.0 0.00 0.00 0.00 35 1010.7
20260503202737 61 303 5.0 8.0 0.00 0.00 0.00 35 1010.9
20260503201553 59 307 3.0 5.0 0.00 0.00 0.00 35 1010.7
20260503200352 59 252 7.0 11.0 0.00 0.00 0.00 34 1010.9
20260503195209 59 315 5.0 9.0 0.00 0.00 0.00 36 1011.2
20260503193920 60 307 5.0 10.0 0.00 0.00 0.00 35 1011.2
20260503192721 60 288 6.0 8.0 0.00 0.00 0.00 36 1011.4
20260503191537 59 291 6.0 9.0 0.00 0.00 0.00 36 1011.5
20260503190354 59 301 5.0 8.0 0.00 0.00 0.00 37 1011.6
20260503185209 58 331 6.0 8.0 0.00 0.00 0.00 38 1011.7
20260503183942 58 307 2.0 3.0 0.00 0.00 0.00 36 1011.8
20260503182757 58 296 4.0 7.0 0.00 0.00 0.00 36 1011.8
20260503181554 57 304 3.0 7.0 0.00 0.00 0.00 36 1012.0
20260503180408 58 263 2.0 5.0 0.00 0.00 0.00 39 1012.1
20260503175121 58 293 4.0 6.0 0.00 0.00 0.00 37 1012.3
20260503173922 57 312 5.0 8.0 0.00 0.00 0.00 36 1012.6
20260503172735 57 268 6.0 10.0 0.00 0.00 0.00 38 1012.6
20260503171554 57 288 4.0 7.0 0.00 0.00 0.00 37 1012.9
20260503170409 55 306 4.0 8.0 0.00 0.00 0.00 39 1013.1
20260503150321 50 332 5.0 7.0 0.00 0.00 0.00 46 1014.1
20260503130353 46 309 2.0 5.0 0.00 0.00 0.00 55 1014.7
20260503110410 40 239 0.0 1.0 0.00 0.00 0.00 70 1014.3
20260503090322 39 247 1.0 2.0 0.00 0.00 0.00 70 1013.2
20260503081554 40 255 0.0 1.0 0.00 0.00 0.00 73 1013.0
20260503080355 40 0.0 0.0 0.00 0.00 0.00 72 1012.8
20260503072759 41 11 0.0 1.0 0.00 0.00 0.00 71 1012.7
20260503071553 42 272 1.0 2.0 0.00 0.00 0.00 69 1012.6
20260503070410 43 313 2.0 2.0 0.00 0.00 0.00 67 1012.5
20260503053922 44 329 1.0 1.0 0.00 0.01 0.00 67 1012.9
20260503052737 44 45 1.0 2.0 0.00 0.01 0.00 66 1012.8
20260503051538 44 9 1.0 3.0 0.00 0.01 0.00 65 1013.0
20260503050353 44 41 1.0 2.0 0.00 0.01 0.00 63 1013.0